Location: Wien
(48.2082°N, 16.3738°E)
Time: 10:12:55
(UTC+01:00)

Courier 1B Rocket - All Passes

Search period start: 25 February 2024 00:00
Search period end: 06 March 2024 00:00
Orbit: 920 x 1202 km, 28.2° (Epoch: 24 February)

Date Brightness Start Highest point End Pass type
(mag) Time Alt. Az. Time Alt. Az. Time Alt. Az.
25 Feb - 03:54:44 10° S 03:56:06 11° S 03:57:28 10° SSE visible
26 Feb - 04:45:55 10° SSW 04:47:25 11° S 04:48:56 10° S visible
27 Feb - 03:45:01 10° SSW 03:46:46 11° S 03:48:31 10° SSE visible
28 Feb - 02:44:33 10° S 02:46:06 11° S 02:47:38 10° SSE visible
29 Feb - 01:45:00 10° S 01:45:26 10° S 01:45:52 10° SSE night (unlit)
29 Feb - 03:35:54 10° SSW 03:37:25 11° S 03:38:56 10° S visible
01 Mar - 02:34:45 10° SSW 02:36:45 12° S 02:38:44 10° SSE visible
02 Mar - 01:34:01 10° SSW 01:36:04 12° S 01:38:06 10° SSE night (unlit)
03 Mar - 00:33:43 10° S 00:35:22 11° S 00:37:00 10° SSE night (unlit)
03 Mar - 02:25:29 10° SSW 02:27:24 11° S 02:29:16 10° S night (unlit)
04 Mar - 01:24:12 10° SSW 01:26:42 12° S 01:29:09 10° SSE night (unlit)
05 Mar - 00:23:18 10° SSW 00:25:59 12° S 00:28:36 10° SSE night (unlit)
05 Mar - 02:16:57 10° SSW 02:18:00 10° SSW 02:19:03 10° S night (unlit)
05 Mar - 23:22:45 10° SSW 23:25:14 12° S 23:27:40 10° SSE night (unlit)
